Preview of NWS' New Version of Forecast
This preview is not operational and should not be used for support decisions.
Latest weather observations around

Monroe Regional Airport (KMLU)

Using English Units (Switch to International System of Units)
Date/ Time (CDT) Wind (mph) Vis. (mi) Weather Sky Cond. Temp (°F) Rel. Humidity Wind Chill (°F) Heat Index (°F) Pressure Precip. (in)
Air Dwpt 6 hour Altimeter (inHg) Sea level (inHg) 1 hr 3 hr 6 hr
Max Min
Sep 18 08:53 SE 3 10 Mostly Cloudy BKN100 80 74     82%   85 30.02 30.01      
Sep 18 07:53 S 3 10 Clear CLR 76 72     88%   77 30 30      
Sep 18 06:53 Calm 10 Clear CLR 73 71     94%   74 29.99 29.98      
Sep 18 05:53 Calm 10 Clear CLR 73 71     94%   74 29.98 29.97      
Sep 18 04:53 Calm 10 Clear CLR 72 70     93%   73 29.97 29.96      
Sep 18 03:53 E 3 10 Clear CLR 72 70     93%   73 29.96 29.95      
Sep 18 02:53 Calm 10 Clear CLR 72 70     93%   73 29.97 29.96      
Sep 18 01:53 SSE 3 10 Clear CLR 74 71     91%   75 29.97 29.97      
Sep 18 00:53 Calm 10 Clear CLR 74 70     87%   75 29.97 29.96      
Sep 17 23:53 Calm 10 Clear CLR 77 71     82%   78 29.97 29.97      
Sep 17 22:53 Calm 10 Clear CLR 78 71     79%   79 29.98 29.97      
Sep 17 21:53 Calm 10 Clear   82 70     67%   86 29.97 29.97      
Sep 17 20:53 S 5 10 Clear CLR 80 71     74%   84 29.96 29.96      
Sep 17 19:53 SSE 3 10 Clear CLR 84 71     65%   89 29.94 29.93      
Sep 17 18:53 Calm 10 Mostly Clear FEW075 90 68     49%   94 29.93 29.92      
Sep 17 17:53 ESE 3 10 Clear CLR 94 66     40%   97 29.93 29.92      
Sep 17 16:53 E 3 10 Mostly Cloudy BKN070 96 65     36%   99 29.93 29.92      
Sep 17 15:53 ESE 8 10 Mostly Cloudy SCT080 BKN095 98 65     34%   101 29.94 29.94      
Sep 17 14:53   10 Mostly Cloudy BKN060 96 66     38%   100 29.97 29.96      
Sep 17 13:53 SE 8 10 Mostly Clear FEW070 97 68     39%   102 29.99 29.99      
Sep 17 12:53 E 8 10 Mostly Cloudy BKN050 95 70     44%   102 30.02 30.01      
Sep 17 11:53 E 8 10 Partly Cloudy SCT050 92 71     51%   99 30.04 30.03      
Sep 17 10:53 ESE 5 10 Clear CLR 90 72     56%   97 30.06 30.05      
Sep 17 09:53 E 3 10 Clear CLR 86 74     67%   94 30.05 30.05      
Sep 17 08:53 NE 3 10 Clear CLR 81 73     77%   86 30.05 30.04      
Sep 17 07:53 ENE 3 10 Clear CLR 76 72     88%   77 30.04 30.03      
Sep 17 06:53 NE 5 10 Clear CLR 71 69     93%   72 30.03 30.02      
Sep 17 05:53 Calm 9 Clear CLR 71 70     96%   72 30.01 30.01      
Sep 17 04:53 Calm 10 Clear CLR 72 69     91%   73 30 29.99      
Sep 17 03:53 Calm 10 Clear CLR 72 70     93%   73 29.99 29.99      
Sep 17 02:53 Calm 10 Clear CLR 73 70     90%   74 29.99 29.98      
Sep 17 01:53 Calm 10 Clear CLR 73 70     90%   74 30 29.99      
Sep 17 00:53 Calm 10 Clear CLR 74 71     91%   75 30 29.99      
Sep 16 23:53 Calm 10 Clear CLR 75 71     88%   76 30 30      
Sep 16 22:53 Calm 10 Clear CLR 77 71     82%   78 30.01 30      
Sep 16 21:53 Calm 10 Clear CLR 81 70     69%   84 30 29.99      
Sep 16 20:53 E 3 10 Clear CLR 80 70     71%   83 29.97 29.97      
Sep 16 19:53 Calm 10 Clear CLR 84 69     61%   88 29.97 29.96      
Sep 16 18:53 3 10 Cloudy OVC095 92 66     43%   95 29.96 29.95      
Sep 16 17:53 3 10 Clear CLR 95 66     39%   98 29.96 29.95      
Sep 16 16:53 E 8 10 Clear CLR 98 66     35%   102 29.95 29.95      
Sep 16 15:53 ESE 8 10 Clear CLR 98 65     34%   101 29.97 29.96      
Sep 16 14:53 ENE 13 10 Mostly Clear FEW070 98 67     36%   103 29.99 29.98      
Sep 16 13:53 ENE 9 10 Partly Cloudy FEW065 SCT100 97 68     39%   102 30.01 30.01      
Sep 16 12:53 E 9 10 Clear CLR 94 69     45%   99 30.04 30.04      
Sep 16 11:53 E 9 10 Partly Cloudy SCT055 94 71     48%   101 30.06 30.06      
Sep 16 10:53 E 6 10 Clear CLR 93 71     49%   100 30.08 30.07      
Sep 16 09:53 ENE 5 10 Clear CLR 88 72     59%   95 30.08 30.07      
Sep 16 08:53 Calm 10 Clear CLR 83 72     70%   88 30.08 30.07      
Sep 16 07:53 Calm 8 Clear CLR 76 72     88%   77 30.07 30.06      
Sep 16 06:53 Calm 9 Clear CLR 72 70     93%   73 30.06 30.05      
Sep 16 05:53 Calm 9 Clear CLR 72 69     91%   73 30.05 30.04      
Sep 16 04:53 Calm 10 Clear CLR 73 70     90%   74 30.04 30.03      
Sep 16 03:53 Calm 10 Clear CLR 74 70     87%   75 30.04 30.03      
Sep 16 02:53 Calm 10 Clear CLR 74 70     87%   75 30.04 30.03      
Sep 16 01:53 E 3 10 Clear CLR 74 70     87%   75 30.04 30.03      
Sep 16 00:53 E 3 10 Clear CLR 76 70     82%   77 30.04 30.03      
Sep 15 23:53 E 3 10 Clear CLR 76 70     82%   77 30.04 30.03      
Sep 15 22:53 ENE 3 10 Clear CLR 78 71     79%   79 30.04 30.03      
Sep 15 21:53 E 3 10 Clear CLR 79 70     74%   82 30.04 30.03      
Sep 15 20:53 Calm 10 Clear CLR 80 72     76%   84 30.01 30.01      
Sep 15 19:53 Calm 10 Clear CLR 83 72     70%   88 30 29.99      
Sep 15 18:53 ENE 3 10 Clear CLR 89 73     59%   97 30 29.99     0
Sep 15 17:53 ENE 5 10 Mostly Clear FEW075 93 69     46%   98 30 29.99 0    
Sep 15 16:53 NE 13 10 Mostly Cloudy BKN060 97 69     41%   103 29.99 29.99      
Sep 15 15:53 ENE 9 10 Mostly Clear FEW110 96 68     40%   101 30 30      
Sep 15 14:53 E 7 10 Partly Cloudy SCT065 98 68     38%   104 30.01 30.01      
Sep 15 13:53 E 9 10 Mostly Cloudy BKN060 96 69     42%   102 30.04 30.04      
Sep 15 12:53 6 10 Mostly Cloudy BKN060 96 70     43%   103 30.07 30.06      
Sep 15 11:53 5 10 Mostly Clear FEW050 94 70     46%   100 30.08 30.08      
Sep 15 10:53 NNE 5 10 Clear CLR 91 72     54%   99 30.1 30.09      
May 14 15:53 WSW 7 10 Clear CLR 92 66     43%   95 29.95 29.94      
May 14 06:53 Calm 5 Fog/Mist CLR 69 69     100%     30.04 30.04      
May 13 02:53 S 3 10 Clear CLR 72 68     87%   73 30.03 30.02      
May 12 02:53 S 5 10 Clear CLR 70 65     84%     30.02 30.02      
May 11 16:53 SSW 10 10 Clear CLR 88 63     43%   89 29.98 29.97      
Jun 11 22:53 E 3 10 Clear   74 72     94%   75 30.02 30.01 0    
Jun 11 10:53 6 10 Partly Cloudy SCT050 83 70     65%   87 30.05 30.05      
Jun 11 01:53 S 3 10 Clear CLR 72 64     76%   72 30 29.99      
Jun 09 08:53 5 10 Clear CLR 73 61     66%   73 29.98 29.98      
Jun 09 04:53 Calm 10 Clear CLR 62 59     90%     29.93 29.93      
Jun 07 10:53 NE 17 10 Clear CLR 79 60     52%   79 29.93 29.92      
Jun 06 07:53 N 6 6 Light Rain and Fog/Mist OVC005 73 71     94%   74 29.77 29.76 0    
Jun 06 04:53 N 6 10 Light Rain OVC110 72 71     97%   73 29.74 29.73 0    
Notice The following observation data may not be complete
Jun 06 03:06   1 Heavy Rain and Fog/Mist FEW007 SCT017 OVC027          %         0    
Jun 06 01:53 N 5 10 Cloudy SCT019 BKN040 OVC090 74 71     91%   75 29.74 29.73      
Jun 05 14:11 5 10 Cloudy BKN020 OVC048 80 69     69%   83 29.75